Location: Austin
(30.3000°N, 97.7500°W)
Time: 04:29:27
(UTC-05:00)

Cosmos 2219 Rocket - Pass Details

Date: 18 March 2023
Orbit: 826 x 848 km, 71.0° (Epoch: 01 April)

Event Time Altitude Azimuth Distance (km) Brightness Sun altitude
Rises 22:07:07 0° 337° (NNW) 3,411 5.9 -31.7°
Reaches altitude 10° 22:09:34 10° 336° (NNW) 2,473 5.1 -32.2°
Enters shadow 22:13:37 47° 323° (NW) 1,106 3.0 -33.1°
